QPF
0.03 0.03 0.04 0.03 0.03 0.03 0.04 0.06 0.08 0.09 0.08 0.07 0.07 0.06 0.06 0.08 0.07 0.07 0.07 0.03 0.01 0.01 0.02 0.02 0.03 0.04 0.06 0.07 0.08 0.09 0.09 0.10 0.11 0.12 0.11 0.11 0.10 0.08
0.03 0.03 0.03 0.03 0.02 0.02 0.03 0.04 0.05 0.07 0.08 0.09 0.07 0.06 0.07 0.07 0.07 0.07 0.07 0.04 0.02 0.01 0.01 0.02 0.03 0.03 0.04 0.04 0.05 0.05 0.06 0.06 0.06 0.06 0.07 0.09 0.09 0.08
0.02 0.02 0.02 0.03 0.02 0.02 0.02 0.03 0.04 0.05 0.06 0.08 0.07 0.08 0.09 0.09 0.07 0.07 0.07 0.07 0.03 0.02 0.02 0.03 0.03 0.03 0.03 0.03 0.03 0.03 0.04 0.05 0.05 0.05 0.04 0.04 0.06 0.06
0.02 0.01 0.02 0.02 0.02 0.02 0.02 0.03 0.04 0.04 0.04 0.05 0.04 0.07 0.08 0.10 0.08 0.08 0.08 0.08 0.05 0.03 0.02 0.03 0.02 0.03 0.03 0.02 0.03 0.03 0.03 0.04 0.04 0.03 0.03 0.03 0.04 0.05
0.01 0.01 0.02 0.02 0.03 0.03 0.02 0.03 0.03 0.03 0.04 0.04 0.03 0.04 0.06 0.07 0.08 0.05 0.07 0.07 0.05 0.03 0.02 0.01 0.02 0.02 0.02 0.02 0.02 0.02 0.02 0.02 0.02 0.02 0.02 0.02 0.02 0.03
0.01 0.01 0.01 0.01 0.03 0.03 0.03 0.03 0.03 0.03 0.04 0.04 0.03 0.03 0.04 0.05 0.07 0.05 0.04 0.05 0.05 0.03 0.03 0.02 0.01 0.01 0.02 0.03 0.03 0.02 0.02 0.02 0.02 0.01 0.02 0.02 0.02 0.02
0.00 0.00 0.01 0.01 0.02 0.03 0.03 0.03 0.03 0.03 0.03 0.05 0.06 0.05 0.04 0.04 0.05 0.06 0.05 0.04 0.03 0.03 0.04 0.04 0.03 0.02 0.01 0.02 0.02 0.03 0.02 0.02 0.02 0.02 0.02 0.02 0.02 0.01
0.01 0.01 0.01 0.01 0.01 0.03 0.04 0.03 0.03 0.03 0.03 0.04 0.06 0.07 0.05 0.05 0.06 0.06 0.05 0.05 0.04 0.03 0.03 0.03 0.04 0.04 0.03 0.02 0.01 0.02 0.02 0.02 0.02 0.02 0.01 0.01 0.02 0.02
0.02 0.02 0.01 0.01 0.01 0.02 0.06 0.06 0.03 0.02 0.02 0.03 0.05 0.04 0.05 0.05 0.05 0.05 0.04 0.04 0.04 0.04 0.04 0.04 0.03 0.03 0.03 0.03 0.03 0.02 0.02 0.02 0.01 0.01 0.01 0.01 0.01 0.01
0.02 0.03 0.02 0.02 0.01 0.02 0.04 0.06 0.07 0.04 0.02 0.02 0.03 0.03 0.03 0.04 0.05 0.05 0.06 0.05 0.04 0.06 0.06 0.06 0.06 0.04 0.02 0.03 0.03 0.02 0.02 0.02 0.01 0.01 0.01 0.01 0.01 0.01
0.02 0.02 0.02 0.03 0.02 0.02 0.03 0.04 0.05 0.05 0.04 0.03 0.02 0.03 0.03 0.03 0.04 0.05 0.05 0.06 0.04 0.04 0.07 0.06 0.06 0.06 0.05 0.04 0.03 0.02 0.01 0.01 0.02 0.02 0.02 0.02 0.02 0.02
0.01 0.01 0.02 0.03 0.03 0.03 0.03 0.04 0.04 0.04 0.05 0.03 0.02 0.03 0.04 0.04 0.03 0.03 0.04 0.05 0.05 0.03 0.04 0.06 0.04 0.05 0.05 0.06 0.05 0.04 0.03 0.02 0.02 0.02 0.03 0.04 0.04 0.04
0.01 0.01 0.02 0.04 0.04 0.03 0.03 0.03 0.04 0.04 0.04 0.04 0.04 0.04 0.04 0.04 0.03 0.02 0.03 0.04 0.04 0.03 0.03 0.04 0.05 0.04 0.04 0.04 0.05 0.05 0.04 0.03 0.02 0.02 0.03 0.04 0.05 0.05
0.01 0.01 0.02 0.04 0.04 0.04 0.04 0.04 0.04 0.04 0.04 0.04 0.03 0.03 0.03 0.03 0.03 0.02 0.02 0.03 0.03 0.02 0.02 0.02 0.03 0.04 0.03 0.03 0.03 0.03 0.03 0.03 0.03 0.02 0.02 0.03 0.04 0.05
0.01 0.02 0.03 0.05 0.06 0.05 0.04 0.04 0.04 0.04 0.04 0.03 0.03 0.03 0.03 0.03 0.03 0.03 0.02 0.02 0.02 0.01 0.02 0.01 0.02 0.03 0.03 0.03 0.03 0.03 0.02 0.02 0.02 0.02 0.02 0.02 0.02 0.02
0.01 0.02 0.03 0.04 0.06 0.05 0.04 0.04 0.04 0.03 0.03 0.02 0.02 0.03 0.03 0.04 0.04 0.03 0.02 0.02 0.02 0.01 0.01 0.02 0.02 0.03 0.03 0.03 0.04 0.04 0.04 0.03 0.02 0.02 0.02 0.02 0.02 0.02
0.02 0.02 0.03 0.03 0.04 0.04 0.05 0.04 0.03 0.03 0.03 0.02 0.02 0.02 0.03 0.03 0.04 0.04 0.03 0.03 0.03 0.03 0.02 0.02 0.03 0.04 0.05 0.05 0.04 0.04 0.05 0.05 0.05 0.05 0.04 0.03 0.02 0.02
0.03 0.03 0.03 0.03 0.03 0.04 0.05 0.05 0.04 0.03 0.02 0.03 0.03 0.02 0.02 0.03 0.05 0.06 0.04 0.03 0.03 0.03 0.03 0.03 0.03 0.04 0.05 0.06 0.06 0.06 0.06 0.06 0.05 0.06 0.06 0.05 0.03 0.02
0.04 0.04 0.04 0.04 0.04 0.05 0.05 0.06 0.05 0.04 0.03 0.03 0.02 0.02 0.02 0.03 0.04 0.05 0.04 0.03 0.02 0.02 0.03 0.03 0.04 0.04 0.05 0.05 0.06 0.06 0.06 0.06 0.07 0.06 0.07 0.08 0.06 0.04
0.04 0.05 0.05 0.06 0.06 0.06 0.06 0.06 0.06 0.06 0.05 0.04 0.03 0.02 0.02 0.03 0.03 0.04 0.03 0.02 0.02 0.02 0.02 0.02 0.02 0.03 0.04 0.05 0.05 0.05 0.05 0.06 0.10 0.10 0.08 0.09 0.07 0.06
0.04 0.06 0.06 0.07 0.08 0.08 0.08 0.07 0.07 0.07 0.06 0.05 0.04 0.02 0.02 0.03 0.03 0.03 0.03 0.02 0.02 0.02 0.02 0.02 0.02 0.02 0.03 0.05 0.04 0.03 0.03 0.05 0.08 0.11 0.11 0.10 0.08 0.05
0.05 0.06 0.07 0.08 0.10 0.09 0.10 0.09 0.09 0.08 0.06 0.05 0.04 0.03 0.02 0.03 0.03 0.03 0.03 0.02 0.01 0.01 0.02 0.02 0.02 0.01 0.01 0.03 0.03 0.03 0.02 0.03 0.04 0.07 0.09 0.09 0.09 0.06
0.05 0.07 0.09 0.10 0.12 0.12 0.11 0.11 0.11 0.10 0.07 0.06 0.04 0.03 0.02 0.03 0.03 0.03 0.02 0.01 0.01 0.01 0.01 0.01 0.01 0.01 0.01 0.01 0.01 0.01 0.01 0.01 0.02 0.02 0.03 0.03 0.04 0.05
MSLP
1011.17 1011.17 1011.20 1011.23 1011.25 1011.25 1011.19 1011.08 1010.90 1010.66 1010.38 1010.08 1009.79 1009.54 1009.37 1009.27 1009.29 1009.40 1009.62 1009.93 1010.31 1010.75 1011.21 1011.68 1012.14 1012.57 1012.97 1013.34 1013.68 1014.01 1014.33 1014.64 1014.96 1015.28 1015.60 1015.90 1016.18 1016.42
1010.72 1010.70 1010.71 1010.74 1010.77 1010.79 1010.78 1010.72 1010.60 1010.42 1010.19 1009.93 1009.66 1009.40 1009.19 1009.05 1009.01 1009.07 1009.25 1009.53 1009.91 1010.35 1010.84 1011.33 1011.81 1012.27 1012.68 1013.04 1013.37 1013.68 1013.98 1014.28 1014.58 1014.90 1015.22 1015.53 1015.81 1016.06
1010.19 1010.14 1010.13 1010.15 1010.19 1010.25 1010.29 1010.30 1010.27 1010.19 1010.05 1009.85 1009.62 1009.38 1009.16 1008.99 1008.90 1008.91 1009.04 1009.28 1009.63 1010.06 1010.55 1011.05 1011.55 1012.01 1012.43 1012.80 1013.12 1013.41 1013.70 1013.98 1014.28 1014.59 1014.91 1015.22 1015.52 1015.78
1009.61 1009.51 1009.47 1009.48 1009.53 1009.62 1009.73 1009.83 1009.90 1009.93 1009.90 1009.81 1009.65 1009.46 1009.25 1009.07 1008.95 1008.91 1008.99 1009.18 1009.49 1009.90 1010.37 1010.87 1011.37 1011.84 1012.26 1012.63 1012.95 1013.24 1013.51 1013.78 1014.07 1014.37 1014.69 1015.02 1015.32 1015.60
1009.02 1008.87 1008.78 1008.75 1008.81 1008.92 1009.09 1009.28 1009.46 1009.61 1009.70 1009.72 1009.66 1009.54 1009.38 1009.22 1009.08 1009.02 1009.05 1009.20 1009.47 1009.85 1010.29 1010.78 1011.28 1011.76 1012.18 1012.56 1012.88 1013.16 1013.42 1013.69 1013.96 1014.26 1014.58 1014.90 1015.22 1015.50
1008.48 1008.24 1008.09 1008.02 1008.04 1008.17 1008.37 1008.62 1008.90 1009.16 1009.38 1009.52 1009.58 1009.55 1009.46 1009.34 1009.22 1009.16 1009.17 1009.29 1009.53 1009.87 1010.30 1010.78 1011.27 1011.75 1012.19 1012.57 1012.90 1013.18 1013.44 1013.70 1013.96 1014.25 1014.55 1014.86 1015.17 1015.46
1008.03 1007.69 1007.45 1007.30 1007.28 1007.37 1007.58 1007.87 1008.21 1008.56 1008.88 1009.14 1009.31 1009.39 1009.39 1009.34 1009.27 1009.23 1009.25 1009.36 1009.59 1009.92 1010.33 1010.80 1011.30 1011.78 1012.23 1012.63 1012.97 1013.27 1013.53 1013.78 1014.03 1014.29 1014.57 1014.87 1015.16 1015.43
1007.69 1007.25 1006.90 1006.65 1006.54 1006.57 1006.74 1007.02 1007.39 1007.79 1008.19 1008.55 1008.83 1009.02 1009.12 1009.16 1009.16 1009.17 1009.22 1009.35 1009.58 1009.91 1010.32 1010.80 1011.30 1011.80 1012.28 1012.70 1013.06 1013.37 1013.64 1013.89 1014.13 1014.37 1014.62 1014.88 1015.14 1015.38
1007.48 1006.93 1006.46 1006.10 1005.87 1005.81 1005.90 1006.12 1006.46 1006.88 1007.32 1007.74 1008.12 1008.41 1008.62 1008.76 1008.85 1008.94 1009.05 1009.21 1009.46 1009.80 1010.22 1010.70 1011.22 1011.75 1012.25 1012.71 1013.11 1013.45 1013.73 1013.98 1014.21 1014.43 1014.65 1014.86 1015.08 1015.30
1007.36 1006.72 1006.13 1005.65 1005.29 1005.10 1005.08 1005.21 1005.49 1005.87 1006.32 1006.78 1007.22 1007.61 1007.92 1008.17 1008.37 1008.54 1008.71 1008.93 1009.21 1009.57 1010.00 1010.49 1011.03 1011.58 1012.11 1012.61 1013.05 1013.43 1013.75 1014.02 1014.24 1014.45 1014.63 1014.81 1014.99 1015.17
1007.31 1006.59 1005.90 1005.29 1004.81 1004.47 1004.32 1004.33 1004.52 1004.84 1005.26 1005.73 1006.22 1006.68 1007.09 1007.45 1007.74 1008.00 1008.25 1008.53 1008.84 1009.21 1009.65 1010.16 1010.70 1011.27 1011.84 1012.38 1012.87 1013.29 1013.65 1013.95 1014.20 1014.40 1014.57 1014.72 1014.87 1015.01
1007.26 1006.48 1005.72 1005.00 1004.39 1003.92 1003.62 1003.51 1003.58 1003.82 1004.20 1004.67 1005.19 1005.71 1006.21 1006.66 1007.05 1007.41 1007.73 1008.05 1008.39 1008.78 1009.22 1009.72 1010.27 1010.85 1011.44 1012.02 1012.55 1013.03 1013.45 1013.79 1014.07 1014.28 1014.46 1014.60 1014.72 1014.84
1007.16 1006.35 1005.53 1004.73 1004.01 1003.42 1002.99 1002.75 1002.71 1002.86 1003.18 1003.63 1004.17 1004.75 1005.32 1005.86 1006.36 1006.80 1007.19 1007.56 1007.93 1008.33 1008.76 1009.25 1009.78 1010.36 1010.96 1011.56 1012.14 1012.67 1013.14 1013.54 1013.86 1014.11 1014.30 1014.45 1014.57 1014.68
1006.95 1006.14 1005.28 1004.43 1003.63 1002.94 1002.39 1002.04 1001.89 1001.96 1002.22 1002.65 1003.20 1003.82 1004.47 1005.10 1005.68 1006.21 1006.68 1007.10 1007.50 1007.90 1008.32 1008.78 1009.30 1009.86 1010.46 1011.07 1011.68 1012.25 1012.78 1013.23 1013.60 1013.89 1014.12 1014.29 1014.42 1014.53
1006.63 1005.82 1004.96 1004.07 1003.21 1002.44 1001.80 1001.35 1001.11 1001.10 1001.31 1001.71 1002.27 1002.93 1003.64 1004.36 1005.04 1005.66 1006.20 1006.68 1007.12 1007.53 1007.94 1008.39 1008.88 1009.41 1010.00 1010.61 1011.23 1011.83 1012.39 1012.89 1013.31 1013.66 1013.92 1014.12 1014.28 1014.41
1006.18 1005.40 1004.54 1003.64 1002.75 1001.92 1001.21 1000.67 1000.35 1000.26 1000.41 1000.79 1001.35 1002.05 1002.82 1003.62 1004.39 1005.11 1005.74 1006.30 1006.78 1007.23 1007.65 1008.09 1008.55 1009.07 1009.63 1010.23 1010.85 1011.46 1012.04 1012.57 1013.03 1013.41 1013.72 1013.95 1014.14 1014.29
1005.64 1004.89 1004.05 1003.16 1002.24 1001.37 1000.60 999.99 999.59 999.43 999.53 999.86 1000.41 1001.13 1001.96 1002.83 1003.70 1004.52 1005.26 1005.91 1006.47 1006.97 1007.43 1007.88 1008.34 1008.84 1009.38 1009.96 1010.56 1011.16 1011.75 1012.29 1012.77 1013.18 1013.52 1013.78 1013.99 1014.16
1005.07 1004.35 1003.54 1002.65 1001.73 1000.83 1000.01 999.34 998.86 998.62 998.65 998.93 999.45 1000.17 1001.03 1001.96 1002.92 1003.84 1004.69 1005.45 1006.12 1006.70 1007.23 1007.72 1008.21 1008.71 1009.23 1009.79 1010.37 1010.96 1011.53 1012.07 1012.55 1012.96 1013.31 1013.59 1013.82 1014.01
1004.49 1003.82 1003.04 1002.17 1001.25 1000.32 999.46 998.72 998.17 997.85 997.79 998.00 998.47 999.16 1000.03 1001.00 1002.02 1003.04 1004.00 1004.89 1005.68 1006.37 1006.99 1007.56 1008.09 1008.62 1009.15 1009.70 1010.26 1010.82 1011.36 1011.88 1012.34 1012.75 1013.10 1013.38 1013.62 1013.82
1003.94 1003.31 1002.57 1001.72 1000.81 999.88 998.98 998.18 997.55 997.14 996.98 997.10 997.50 998.14 998.98 999.96 1001.03 1002.12 1003.19 1004.19 1005.11 1005.93 1006.67 1007.33 1007.94 1008.52 1009.08 1009.63 1010.17 1010.71 1011.22 1011.70 1012.14 1012.54 1012.87 1013.15 1013.39 1013.58
1003.41 1002.82 1002.11 1001.30 1000.41 999.47 998.56 997.72 997.02 996.52 996.27 996.28 996.58 997.14 997.92 998.89 999.96 1001.10 1002.25 1003.36 1004.40 1005.35 1006.22 1006.99 1007.70 1008.34 1008.95 1009.52 1010.06 1010.58 1011.07 1011.53 1011.94 1012.31 1012.63 1012.90 1013.13 1013.32
1002.84 1002.28 1001.62 1000.85 999.99 999.07 998.15 997.29 996.55 995.98 995.64 995.56 995.76 996.22 996.93 997.84 998.91 1000.06 1001.26 1002.45 1003.59 1004.66 1005.65 1006.54 1007.34 1008.07 1008.73 1009.34 1009.90 1010.42 1010.89 1011.32 1011.72 1012.07 1012.37 1012.63 1012.86 1013.05
1002.17 1001.63 1001.00 1000.28 999.47 998.59 997.70 996.86 996.10 995.50 995.11 994.95 995.06 995.43 996.06 996.90 997.92 999.07 1000.28 1001.52 1002.74 1003.90 1004.99 1005.99 1006.89 1007.70 1008.43 1009.08 1009.67 1010.20 1010.67 1011.10 1011.48 1011.82 1012.11 1012.37 1012.59 1012.78
Thickness
5687 5686 5685 5686 5687 5687 5687 5685 5679 5676 5679 5688 5693 5698 5701 5702 5704 5705 5707 5709 5711 5713 5715 5717 5719 5720 5722 5723 5725 5726 5728 5729 5730 5730 5731 5731 5732 5732
5686 5684 5684 5684 5685 5685 5685 5684 5683 5679 5677 5685 5689 5694 5697 5699 5699 5701 5703 5705 5707 5709 5710 5712 5714 5716 5718 5719 5720 5721 5723 5724 5725 5726 5727 5728 5728 5728
5685 5684 5683 5683 5683 5683 5683 5682 5682 5681 5677 5681 5687 5690 5692 5693 5694 5696 5699 5700 5701 5704 5705 5707 5709 5711 5713 5714 5715 5716 5717 5719 5720 5722 5722 5723 5724 5724
5683 5682 5681 5682 5681 5681 5680 5680 5680 5680 5678 5676 5680 5684 5686 5689 5690 5692 5694 5696 5697 5699 5701 5703 5704 5706 5707 5709 5710 5711 5712 5713 5715 5716 5717 5718 5718 5719
5683 5681 5680 5679 5678 5678 5678 5678 5678 5680 5678 5676 5676 5679 5681 5684 5685 5687 5689 5691 5693 5694 5696 5697 5699 5700 5701 5703 5704 5705 5706 5708 5709 5710 5711 5712 5712 5713
5682 5681 5679 5678 5676 5676 5676 5676 5676 5676 5675 5674 5673 5674 5676 5679 5679 5679 5680 5684 5686 5690 5690 5691 5693 5694 5695 5697 5698 5699 5700 5701 5702 5703 5704 5705 5706 5707
5679 5679 5678 5677 5676 5675 5674 5673 5673 5672 5671 5670 5670 5670 5671 5672 5673 5674 5674 5677 5680 5683 5684 5685 5686 5688 5689 5690 5691 5692 5693 5695 5696 5697 5698 5699 5699 5700
5673 5675 5675 5674 5673 5673 5673 5672 5671 5669 5667 5667 5666 5666 5667 5669 5670 5671 5670 5670 5670 5677 5677 5678 5681 5682 5683 5684 5685 5686 5687 5688 5689 5690 5691 5692 5692 5693
5666 5668 5670 5671 5670 5669 5668 5668 5668 5668 5668 5666 5664 5664 5665 5667 5666 5666 5666 5666 5667 5671 5672 5671 5675 5675 5677 5678 5679 5681 5681 5682 5682 5683 5684 5685 5685 5686
5659 5661 5662 5663 5664 5663 5662 5662 5662 5663 5665 5665 5664 5664 5665 5665 5665 5664 5664 5664 5665 5666 5668 5664 5668 5669 5670 5671 5673 5674 5675 5675 5676 5676 5677 5678 5678 5679
5651 5653 5654 5655 5657 5657 5656 5656 5657 5658 5660 5662 5662 5661 5661 5662 5662 5660 5658 5656 5655 5658 5661 5660 5661 5661 5662 5663 5665 5666 5667 5668 5669 5669 5670 5671 5671 5672
5641 5644 5646 5646 5648 5649 5648 5649 5649 5652 5654 5655 5655 5655 5655 5656 5656 5656 5654 5652 5651 5651 5655 5655 5655 5655 5653 5657 5658 5659 5659 5660 5661 5662 5662 5663 5664 5664
5628 5631 5635 5636 5637 5639 5640 5642 5644 5647 5648 5649 5649 5649 5649 5650 5650 5651 5651 5650 5648 5647 5650 5651 5649 5649 5647 5647 5650 5652 5653 5653 5653 5653 5654 5655 5656 5656
5615 5619 5623 5625 5627 5629 5632 5636 5638 5640 5640 5642 5642 5642 5643 5644 5644 5645 5646 5646 5646 5645 5646 5646 5644 5642 5641 5640 5641 5644 5645 5646 5646 5646 5646 5647 5647 5648
5604 5608 5611 5614 5616 5619 5623 5627 5629 5631 5632 5633 5635 5637 5638 5639 5639 5639 5639 5639 5639 5640 5640 5640 5639 5638 5636 5634 5634 5635 5635 5637 5638 5639 5638 5638 5639 5639
5590 5595 5599 5603 5605 5609 5614 5617 5621 5624 5626 5627 5629 5631 5632 5633 5632 5632 5631 5631 5629 5629 5632 5633 5633 5631 5629 5629 5628 5628 5629 5628 5630 5631 5631 5631 5632 5632
5577 5581 5585 5589 5594 5599 5604 5609 5613 5617 5619 5621 5623 5623 5624 5625 5625 5626 5625 5624 5622 5621 5621 5622 5624 5624 5623 5622 5621 5621 5622 5622 5623 5623 5623 5622 5623 5624
5566 5570 5575 5580 5585 5590 5595 5601 5605 5610 5614 5615 5616 5617 5617 5618 5618 5618 5619 5618 5616 5616 5615 5614 5614 5613 5613 5614 5615 5615 5615 5615 5615 5616 5615 5613 5613 5615
5555 5560 5566 5572 5578 5583 5588 5592 5598 5603 5607 5609 5610 5611 5612 5612 5612 5612 5611 5610 5610 5609 5609 5608 5607 5606 5603 5603 5606 5607 5607 5607 5607 5606 5606 5606 5605 5606
5547 5551 5557 5564 5569 5575 5579 5584 5590 5594 5599 5603 5605 5606 5606 5606 5605 5605 5605 5604 5603 5602 5601 5601 5600 5600 5599 5597 5597 5597 5599 5599 5598 5597 5598 5598 5597 5599
5539 5543 5547 5553 5560 5566 5571 5576 5581 5587 5591 5596 5599 5600 5601 5600 5599 5599 5598 5598 5597 5596 5594 5593 5594 5594 5592 5591 5588 5587 5588 5590 5591 5590 5590 5588 5588 5588
5530 5534 5539 5544 5550 5556 5562 5567 5572 5578 5584 5588 5592 5593 5594 5594 5594 5593 5592 5591 5589 5589 5588 5585 5584 5584 5583 5581 5580 5580 5579 5580 5581 5582 5582 5582 5579 5579
5522 5525 5530 5535 5541 5547 5552 5559 5564 5570 5576 5580 5584 5586 5587 5587 5587 5587 5586 5585 5583 5581 5579 5576 5575 5575 5575 5574 5573 5573 5573 5571 5571 5570 5571 5573 5573 5573